DLH268 EDDH-ESSA

Flight info

Callsign DLH268
Flight time 1h 16m
Altitude 35000
Route SOKWO1G/33 SOKWO T814 EXNEL M105 AMRAK DCT TNO DCT KULUD DCT MIKNA N851 PELUP Z226 NILUG
Aircraft A320/M-SDE3FGHIRWY/LB1

Departure

Time 2026-04-25 09:15
Airport Hamburg Helmut Schmidt Airport (EDDH)

Arrival

Time 2026-04-25 10:31
Airport Stockholm-Arlanda Airport (ESSA)
Time Latitude Longitude Altitude Speed Heading
2026-04-25 08:44 53.63113 10.00376 48 ft 0 kts 87°
2026-04-25 09:09 53.63113 10.00349 45 ft 4 kts 85°
2026-04-25 09:09 53.63110 10.00304 43 ft 4 kts 84°
2026-04-25 09:09 53.63108 10.00259 43 ft 4 kts 95°
2026-04-25 09:09 53.63114 10.00226 42 ft 3 kts 172°
2026-04-25 09:10 53.63116 10.00225 42 ft 0 kts 176°
2026-04-25 09:13 53.63096 10.00213 44 ft 6 kts 210°
2026-04-25 09:13 53.63039 10.00155 47 ft 13 kts 206°
2026-04-25 09:13 53.62945 10.00051 46 ft 19 kts 220°
2026-04-25 09:14 53.62909 9.99947 45 ft 0 kts 240°
2026-04-25 09:14 53.62894 9.99903 46 ft 12 kts 240°
2026-04-25 09:14 53.62868 9.99779 47 ft 10 kts 278°
2026-04-25 09:14 53.62908 9.99709 47 ft 7 kts 329°
2026-04-25 09:15 53.63000 9.99625 47 ft 42 kts 333°
2026-04-25 09:15 53.63528 9.99171 51 ft 126 kts 333°
2026-04-25 09:15 53.64501 9.98329 136 ft 179 kts 333°
2026-04-25 09:15 53.65602 9.97400 991 ft 177 kts 333°
2026-04-25 09:16 53.66706 9.96459 1688 ft 181 kts 332°
2026-04-25 09:16 53.67900 9.95430 2009 ft 204 kts 332°
2026-04-25 09:16 53.69303 9.94698 2488 ft 218 kts 355°
2026-04-25 09:16 53.70813 9.94679 3224 ft 220 kts 360°
2026-04-25 09:17 53.73886 9.95250 4675 ft 232 kts 21°
2026-04-25 09:17 53.75374 9.96677 5029 ft 258 kts 33°
2026-04-25 09:17 53.76918 9.98382 5378 ft 269 kts 33°
2026-04-25 09:18 53.78502 10.00131 5909 ft 274 kts 33°
2026-04-25 09:18 53.80105 10.01893 6789 ft 276 kts 32°
2026-04-25 09:18 53.81709 10.03652 7611 ft 279 kts 32°
2026-04-25 09:18 53.83376 10.05481 8429 ft 283 kts 32°
2026-04-25 09:19 53.85013 10.07279 9212 ft 286 kts 32°
2026-04-25 09:19 53.86725 10.09037 9988 ft 289 kts 26°
2026-04-25 09:19 53.88654 10.10290 10361 ft 309 kts 14°
2026-04-25 09:19 53.90841 10.10823 10717 ft 325 kts
2026-04-25 09:20 53.93110 10.10502 11354 ft 330 kts 348°
2026-04-25 09:20 53.95359 10.09561 12063 ft 334 kts 345°
2026-04-25 09:20 53.97626 10.08597 12764 ft 337 kts 346°
2026-04-25 09:20 53.99923 10.07632 13466 ft 340 kts 346°
2026-04-25 09:21 54.02342 10.06619 14158 ft 344 kts 346°
2026-04-25 09:21 54.04533 10.05701 14757 ft 347 kts 346°
2026-04-25 09:21 54.06912 10.04709 15392 ft 351 kts 346°
2026-04-25 09:21 54.09272 10.03539 16008 ft 354 kts 338°
2026-04-25 09:22 54.11446 10.01621 16586 ft 357 kts 326°
2026-04-25 09:22 54.13380 9.98913 17182 ft 359 kts 314°
2026-04-25 09:22 54.15049 9.95769 17747 ft 362 kts 311°
2026-04-25 09:22 54.16740 9.92546 18306 ft 365 kts 311°
2026-04-25 09:23 54.18433 9.89321 18854 ft 368 kts 311°
2026-04-25 09:23 54.20153 9.86039 19394 ft 372 kts 311°
2026-04-25 09:23 54.21893 9.82719 19929 ft 375 kts 311°
2026-04-25 09:23 54.23626 9.79429 20453 ft 378 kts 314°
2026-04-25 09:24 54.25608 9.76440 20961 ft 381 kts 323°
2026-04-25 09:24 54.27748 9.73785 21463 ft 384 kts 324°
2026-04-25 09:24 54.29919 9.71087 21957 ft 387 kts 324°
2026-04-25 09:24 54.32091 9.68386 22441 ft 389 kts 323°
2026-04-25 09:25 54.34383 9.65840 22902 ft 393 kts 333°
2026-04-25 09:25 54.36931 9.64080 23372 ft 396 kts 344°
2026-04-25 09:25 54.39622 9.63239 23812 ft 399 kts 356°
2026-04-25 09:25 54.42414 9.63353 24242 ft 402 kts
2026-04-25 09:26 54.45160 9.64212 24660 ft 405 kts 11°
2026-04-25 09:26 54.47953 9.65136 25076 ft 407 kts 11°
2026-04-25 09:26 54.50726 9.66047 25470 ft 410 kts 10°
2026-04-25 09:26 54.53542 9.66966 25858 ft 412 kts 10°
2026-04-25 09:27 54.56382 9.67877 26234 ft 415 kts 10°
2026-04-25 09:27 54.59204 9.68770 26596 ft 417 kts 10°
2026-04-25 09:27 54.62076 9.69670 26947 ft 419 kts 10°
2026-04-25 09:27 54.64928 9.70562 27282 ft 421 kts 10°
2026-04-25 09:28 54.67840 9.71417 27614 ft 424 kts
2026-04-25 09:28 54.70765 9.72189 27941 ft 426 kts
2026-04-25 09:28 54.73706 9.72913 28263 ft 428 kts
2026-04-25 09:28 54.76663 9.73624 28577 ft 430 kts
2026-04-25 09:29 54.79592 9.74740 28876 ft 432 kts 18°
2026-04-25 09:29 54.82381 9.76753 29167 ft 434 kts 28°
2026-04-25 09:29 54.84920 9.79598 29445 ft 437 kts 38°
2026-04-25 09:29 54.87165 9.83157 29718 ft 439 kts 45°
2026-04-25 09:30 54.89327 9.86911 29987 ft 441 kts 45°
2026-04-25 09:30 54.91507 9.90673 30244 ft 442 kts 44°
2026-04-25 09:30 54.93667 9.94397 30500 ft 444 kts 44°
2026-04-25 09:30 54.95859 9.98185 30746 ft 446 kts 45°
2026-04-25 09:31 54.98074 10.02014 30982 ft 448 kts 44°
2026-04-25 09:31 55.00292 10.05852 31219 ft 449 kts 45°
2026-04-25 09:31 55.02514 10.09718 31444 ft 451 kts 45°
2026-04-25 09:31 55.04709 10.13548 31648 ft 452 kts 45°
2026-04-25 09:32 55.06938 10.17445 31869 ft 454 kts 45°
2026-04-25 09:32 55.09174 10.21354 32070 ft 455 kts 45°
2026-04-25 09:32 55.11413 10.25268 32345 ft 454 kts 45°
2026-04-25 09:32 55.13649 10.29182 32633 ft 454 kts 45°
2026-04-25 09:33 55.15879 10.33096 32913 ft 453 kts 45°
2026-04-25 09:33 55.18074 10.36956 33178 ft 452 kts 45°
2026-04-25 09:33 55.20293 10.40873 33443 ft 452 kts 45°
2026-04-25 09:33 55.22504 10.44781 33701 ft 452 kts 45°
2026-04-25 09:34 55.24714 10.48694 33966 ft 451 kts 45°
2026-04-25 09:34 55.26920 10.52607 34228 ft 451 kts 45°
2026-04-25 09:34 55.29124 10.56512 34472 ft 450 kts 45°
2026-04-25 09:34 55.31326 10.60417 34718 ft 449 kts 45°
2026-04-25 09:35 55.33520 10.64321 34946 ft 449 kts 45°
2026-04-25 09:35 55.37840 10.72046 35005 ft 436 kts 45°
2026-04-25 09:36 55.42048 10.79578 35010 ft 432 kts 45°
2026-04-25 09:36 55.46261 10.87142 35005 ft 432 kts 45°
2026-04-25 09:37 55.50465 10.94723 35009 ft 432 kts 45°
2026-04-25 09:37 55.54660 11.02316 35009 ft 432 kts 45°
2026-04-25 09:38 55.58850 11.09932 35008 ft 431 kts 45°
2026-04-25 09:38 55.63028 11.17548 35002 ft 432 kts 45°
2026-04-25 09:39 55.67211 11.25185 35007 ft 432 kts 46°
2026-04-25 09:39 55.71385 11.32839 35006 ft 431 kts 46°
2026-04-25 09:40 55.77612 11.44298 35003 ft 431 kts 46°
2026-04-25 09:40 55.81808 11.51924 35003 ft 432 kts 45°
2026-04-25 09:41 55.86025 11.59527 35001 ft 432 kts 45°
2026-04-25 09:41 55.90243 11.67149 35001 ft 432 kts 45°
2026-04-25 09:42 55.94443 11.74804 35003 ft 432 kts 45°
2026-04-25 09:42 55.98633 11.82479 35007 ft 432 kts 45°
2026-04-25 09:43 56.02831 11.90180 35006 ft 432 kts 45°
2026-04-25 09:43 56.07017 11.97887 35000 ft 431 kts 46°
2026-04-25 09:44 56.11189 12.05604 34998 ft 431 kts 46°
2026-04-25 09:44 56.15358 12.13342 35001 ft 431 kts 46°
2026-04-25 09:45 56.19523 12.21106 35009 ft 431 kts 46°
2026-04-25 09:45 56.23679 12.28874 34996 ft 431 kts 46°
2026-04-25 09:46 56.27817 12.36712 35000 ft 431 kts 47°
2026-04-25 09:46 56.31807 12.44780 35006 ft 432 kts 49°
2026-04-25 09:47 56.35746 12.52940 34998 ft 431 kts 49°
2026-04-25 09:47 56.39698 12.61085 34997 ft 431 kts 48°
2026-04-25 09:48 56.43667 12.69216 34995 ft 431 kts 48°
2026-04-25 09:48 56.47641 12.77364 35000 ft 432 kts 48°
2026-04-25 09:49 56.51577 12.85474 35010 ft 432 kts 49°
2026-04-25 09:49 56.55555 12.93718 35003 ft 432 kts 49°
2026-04-25 09:50 56.59469 13.01872 35010 ft 432 kts 49°
2026-04-25 09:50 56.63413 13.10106 35002 ft 432 kts 49°
2026-04-25 09:51 56.66691 13.16961 35000 ft 432 kts 49°
2026-04-25 09:51 56.70629 13.25218 35005 ft 432 kts 49°
2026-04-25 09:52 56.74562 13.33507 35000 ft 432 kts 49°
2026-04-25 09:52 56.78485 13.41822 35006 ft 432 kts 49°
2026-04-25 09:53 56.82401 13.50136 34999 ft 432 kts 49°
2026-04-25 09:53 56.86321 13.58456 35003 ft 432 kts 49°
2026-04-25 09:54 56.90233 13.66811 35000 ft 432 kts 49°
2026-04-25 09:54 56.94143 13.75174 34999 ft 432 kts 49°
2026-04-25 09:55 56.98043 13.83564 34995 ft 432 kts 49°
2026-04-25 09:55 57.01932 13.91979 34994 ft 432 kts 49°
2026-04-25 09:56 57.05822 14.00404 35001 ft 432 kts 49°
2026-04-25 09:56 57.09707 14.08838 34999 ft 433 kts 50°
2026-04-25 09:57 57.13566 14.17255 35002 ft 433 kts 50°
2026-04-25 09:57 57.17440 14.25737 35000 ft 433 kts 50°
2026-04-25 09:58 57.21312 14.34252 34997 ft 433 kts 50°
2026-04-25 09:58 57.25172 14.42794 35001 ft 433 kts 50°
2026-04-25 09:59 57.29025 14.51338 35000 ft 433 kts 50°
2026-04-25 09:59 57.32879 14.59898 34995 ft 433 kts 50°
2026-04-25 10:00 57.36706 14.68423 34998 ft 433 kts 50°
2026-04-25 10:00 57.40548 14.77011 34998 ft 433 kts 50°
2026-04-25 10:01 57.44385 14.85631 34992 ft 432 kts 50°
2026-04-25 10:01 57.48219 14.94261 34998 ft 432 kts 50°
2026-04-25 10:02 57.52029 15.02891 34991 ft 433 kts 50°
2026-04-25 10:02 57.55830 15.11545 34995 ft 433 kts 50°
2026-04-25 10:03 57.59635 15.20210 34999 ft 433 kts 50°
2026-04-25 10:03 57.63443 15.28895 34998 ft 433 kts 50°
2026-04-25 10:04 57.67261 15.37637 35003 ft 433 kts 51°
2026-04-25 10:04 57.71064 15.46404 35000 ft 433 kts 51°
2026-04-25 10:05 57.74828 15.55114 34996 ft 433 kts 51°
2026-04-25 10:05 57.78599 15.63893 35002 ft 433 kts 51°
2026-04-25 10:06 57.82365 15.72693 35007 ft 433 kts 51°
2026-04-25 10:06 57.86143 15.81526 35002 ft 433 kts 51°
2026-04-25 10:07 57.89911 15.90282 35003 ft 432 kts 47°
2026-04-25 10:07 57.94421 15.97688 35007 ft 432 kts 38°
2026-04-25 10:08 57.99137 16.04663 35005 ft 432 kts 38°
2026-04-25 10:08 58.03870 16.11709 35001 ft 432 kts 38°
2026-04-25 10:09 58.08591 16.18751 35007 ft 432 kts 38°
2026-04-25 10:09 58.13311 16.25814 34693 ft 435 kts 38°
2026-04-25 10:10 58.15703 16.29329 34180 ft 431 kts 36°
2026-04-25 10:10 58.18093 16.32622 34079 ft 417 kts 35°
2026-04-25 10:10 58.20439 16.35715 33987 ft 404 kts 34°
2026-04-25 10:10 58.22747 16.38698 33900 ft 403 kts 34°
2026-04-25 10:11 58.27426 16.44758 33623 ft 411 kts 34°
2026-04-25 10:11 58.29763 16.47833 33363 ft 418 kts 34°
2026-04-25 10:11 58.32181 16.51053 33099 ft 429 kts 35°
2026-04-25 10:12 58.34636 16.54348 32779 ft 434 kts 35°
2026-04-25 10:12 58.37100 16.57669 32330 ft 435 kts 35°
2026-04-25 10:12 58.42039 16.64324 30930 ft 429 kts 35°
2026-04-25 10:13 58.44467 16.67599 30231 ft 425 kts 35°
2026-04-25 10:13 58.46859 16.70845 29517 ft 420 kts 35°
2026-04-25 10:13 58.49228 16.74064 28765 ft 415 kts 35°
2026-04-25 10:13 58.51567 16.77244 28016 ft 410 kts 35°
2026-04-25 10:14 58.53878 16.80381 27264 ft 405 kts 35°
2026-04-25 10:14 58.56162 16.83480 26512 ft 400 kts 35°
2026-04-25 10:14 58.58419 16.86547 25760 ft 395 kts 35°
2026-04-25 10:14 58.60650 16.89581 24997 ft 391 kts 35°
2026-04-25 10:15 58.62852 16.92579 24258 ft 386 kts 35°
2026-04-25 10:15 58.65030 16.95560 23502 ft 382 kts 35°
2026-04-25 10:15 58.67179 16.98513 22746 ft 377 kts 35°
2026-04-25 10:15 58.69297 17.01433 22001 ft 373 kts 35°
2026-04-25 10:16 58.71394 17.04325 21248 ft 369 kts 35°
2026-04-25 10:16 58.73496 17.07223 20500 ft 372 kts 35°
2026-04-25 10:16 58.75568 17.10076 19747 ft 369 kts 35°
2026-04-25 10:16 58.77642 17.12943 18996 ft 363 kts 36°
2026-04-25 10:17 58.79678 17.15775 18242 ft 358 kts 36°
2026-04-25 10:17 58.81686 17.18568 17487 ft 353 kts 35°
2026-04-25 10:17 58.83673 17.21322 16735 ft 349 kts 35°
2026-04-25 10:17 58.85634 17.24036 15987 ft 345 kts 35°
2026-04-25 10:18 58.87577 17.26729 15230 ft 342 kts 35°
2026-04-25 10:18 58.89495 17.29401 14479 ft 338 kts 36°
2026-04-25 10:18 58.91397 17.32053 13719 ft 335 kts 36°
2026-04-25 10:18 58.93278 17.34683 12972 ft 332 kts 36°
2026-04-25 10:19 58.95165 17.37204 12214 ft 327 kts 27°
2026-04-25 10:19 58.97290 17.38677 11464 ft 323 kts 14°
2026-04-25 10:19 58.99418 17.39599 11108 ft 315 kts 11°
2026-04-25 10:19 59.01476 17.40994 10962 ft 315 kts 31°
2026-04-25 10:20 59.03261 17.43431 10810 ft 306 kts 37°
2026-04-25 10:20 59.04912 17.45896 10656 ft 296 kts 37°
2026-04-25 10:20 59.06531 17.48337 10334 ft 294 kts 37°
2026-04-25 10:20 59.08136 17.50762 9835 ft 290 kts 38°
2026-04-25 10:21 59.09741 17.53190 9336 ft 293 kts 37°
2026-04-25 10:21 59.11361 17.55643 8827 ft 296 kts 38°
2026-04-25 10:21 59.12994 17.58119 8332 ft 298 kts 38°
2026-04-25 10:21 59.14637 17.60611 7824 ft 300 kts 38°
2026-04-25 10:22 59.16285 17.63114 7327 ft 301 kts 38°
2026-04-25 10:22 59.18006 17.65450 6821 ft 302 kts 26°
2026-04-25 10:22 59.19914 17.67177 6323 ft 303 kts 24°
2026-04-25 10:22 59.21822 17.68892 5824 ft 302 kts 24°
2026-04-25 10:23 59.23734 17.70606 5316 ft 302 kts 24°
2026-04-25 10:23 59.25647 17.72317 4816 ft 301 kts 24°
2026-04-25 10:23 59.27538 17.74000 4467 ft 295 kts 24°
2026-04-25 10:23 59.29338 17.75605 4408 ft 278 kts 24°
2026-04-25 10:24 59.31043 17.77134 4415 ft 260 kts 24°
2026-04-25 10:24 59.32629 17.78558 4416 ft 242 kts 24°
2026-04-25 10:24 59.34120 17.79898 4418 ft 232 kts 24°
2026-04-25 10:24 59.35584 17.81210 4420 ft 231 kts 24°
2026-04-25 10:25 59.37044 17.82527 4420 ft 231 kts 24°
2026-04-25 10:25 59.38482 17.83830 4420 ft 220 kts 24°
2026-04-25 10:25 59.39795 17.85021 4419 ft 207 kts 24°
2026-04-25 10:25 59.41054 17.86164 4441 ft 184 kts 24°
2026-04-25 10:26 59.42138 17.87141 4400 ft 162 kts 23°
2026-04-25 10:26 59.43165 17.87840 4227 ft 154 kts 15°
2026-04-25 10:26 59.44206 17.88341 3869 ft 152 kts 12°
2026-04-25 10:26 59.45224 17.88759 3612 ft 148 kts 10°
2026-04-25 10:27 59.46237 17.89145 3401 ft 148 kts 10°
2026-04-25 10:27 59.47243 17.89516 3191 ft 147 kts
2026-04-25 10:27 59.48250 17.89882 2999 ft 147 kts
2026-04-25 10:27 59.49253 17.90244 2801 ft 146 kts
2026-04-25 10:28 59.50254 17.90605 2606 ft 146 kts
2026-04-25 10:28 59.51254 17.90965 2409 ft 146 kts
2026-04-25 10:28 59.52254 17.91325 2220 ft 145 kts
2026-04-25 10:28 59.53246 17.91682 2013 ft 144 kts
2026-04-25 10:29 59.54238 17.92039 1837 ft 145 kts
2026-04-25 10:29 59.55212 17.92390 1640 ft 144 kts
2026-04-25 10:29 59.56195 17.92745 1450 ft 143 kts
2026-04-25 10:29 59.57176 17.93098 1262 ft 143 kts
2026-04-25 10:30 59.58152 17.93451 1076 ft 143 kts
2026-04-25 10:30 59.58814 17.93690 948 ft 143 kts
2026-04-25 10:30 59.60103 17.94156 688 ft 142 kts
2026-04-25 10:30 59.61074 17.94507 503 ft 141 kts
2026-04-25 10:31 59.62041 17.94857 317 ft 141 kts
2026-04-25 10:31 59.63000 17.95201 143 ft 134 kts 10°
2026-04-25 10:31 59.63768 17.95483 127 ft 88 kts 10°
2026-04-25 10:31 59.64194 17.95643 119 ft 42 kts 11°
2026-04-25 10:32 59.64478 17.95714 114 ft 38 kts 356°
2026-04-25 10:32 59.64636 17.95592 112 ft 0 kts 335°
2026-04-25 10:32 59.64635 17.95592 112 ft 0 kts 335°
2026-04-25 10:34 59.64637 17.95591 112 ft 2 kts 335°
2026-04-25 10:34 59.64686 17.95554 111 ft 13 kts 341°
2026-04-25 10:35 59.64802 17.95478 109 ft 16 kts 342°
2026-04-25 10:35 59.64919 17.95489 107 ft 18 kts
2026-04-25 10:35 59.65017 17.95507 109 ft 10 kts 358°
2026-04-25 10:35 59.65077 17.95485 110 ft 8 kts 346°
2026-04-25 10:36 59.65121 17.95463 110 ft 5 kts 346°
2026-04-25 10:36 59.65161 17.95443 111 ft 8 kts 346°
2026-04-25 10:36 59.65237 17.95405 112 ft 14 kts 346°
2026-04-25 10:36 59.65352 17.95348 115 ft 20 kts 346°
2026-04-25 10:37 59.65503 17.95272 117 ft 25 kts 346°
2026-04-25 10:37 59.65614 17.95215 118 ft 7 kts 343°
2026-04-25 10:37 59.65644 17.95197 119 ft 3 kts 343°
2026-04-25 10:37 59.65685 17.95172 119 ft 10 kts 343°
2026-04-25 10:38 59.65744 17.95078 120 ft 14 kts 295°
2026-04-25 10:38 59.65732 17.94850 117 ft 21 kts 255°
2026-04-25 10:38 59.65688 17.94531 116 ft 27 kts 255°
2026-04-25 10:38 59.65641 17.94172 116 ft 27 kts 256°
2026-04-25 10:39 59.65598 17.93832 115 ft 27 kts 256°
2026-04-25 10:39 59.65549 17.93425 116 ft 33 kts 257°
2026-04-25 10:39 59.65519 17.93188 117 ft 13 kts 256°
2026-04-25 10:39 59.65499 17.93057 115 ft 4 kts 252°
2026-04-25 10:40 59.65480 17.92964 114 ft 10 kts 227°
2026-04-25 10:40 59.65412 17.93004 118 ft 11 kts 154°
2026-04-25 10:40 59.65390 17.93013 115 ft 0 kts 171°
2026-04-25 10:40 59.65384 17.93015 114 ft 0 kts 168°